Location: Newark
(40.7066°N, 111.8219°W)
Time: 13:22:53
(UTC+00:00)

Transit 2A Rocket - Pass Details

Date: 27 November 2019
Orbit: 594 x 909 km, 66.7° (Epoch: 07 December)

Event Time Altitude Azimuth Distance (km) Brightness Sun altitude
Rises 12:20:32 0° 326° (NW) 2,863 - -23.6°
Reaches altitude 10° 12:22:46 10° 322° (NW) 1,977 - -23.2°
Maximum altitude 12:27:06 57° 244° (WSW) 756 - -22.4°
Exits shadow 12:27:20 56° 230° (SW) 764 4.7 -22.4°
Drops below altitude 10° 12:31:43 10° 166° (SSE) 2,101 7.5 -21.6°
Sets 12:34:09 0° 163° (SSE) 3,062 8.5 -21.1°
